Location: ??????
(33.3472°N, 35.4764°E)
Time: 22:14:54
(UTC+00:00)

Cosmos 1892 - Pass Details

Date: 21 August 2019
Orbit: 506 x 524 km, 82.5° (Epoch: 19 September)

Event Time Altitude Azimuth Distance (km) Brightness Sun altitude
Rises 01:15:53 0° 356° (N) 2,636 6.7 -21.6°
Reaches altitude 10° 01:18:01 10° 358° (N) 1,748 5.7 -21.2°
Maximum altitude 01:21:51 71° 83° (E) 551 2.9 -20.5°
Enters shadow 01:24:22 20° 165° (SSE) 1,223 4.4 -20.1°
